{"data":{"norad_id":66676,"epoch":"2026-05-25T02:36:15.697728Z","epoch_age_seconds":69672,"freshness":"FRESH","line1":"1 66676U 25276L   26145.10851502  .00004446  00000+0  21705-3 0  9998","line2":"2 66676  97.4180 218.8034 0007625  88.7560 271.4548 15.18756802 26903","mean_motion":15.18756802,"eccentricity":0.0007625,"inclination_deg":97.418,"raan_deg":218.8034,"arg_perigee_deg":88.756,"mean_anomaly_deg":271.4548,"bstar":0.00021705,"rev_number":2690,"period_min":94.814390171205,"perigee_km":504.34485030747,"apogee_km":514.84864427209,"semimajor_km":6887.7337472898,"source":"CELESTRAK","updated_at":"2026-05-25T13:38:06.407092Z"}}